Date String (YYYY-MM-DD hh:mm:ss) UTC,Instrument flags,absolute air pressure of the measurement (hPa),sample flow rate (lpm),inlet stack bypass flow (lpm),air temperature of the measurement (°C),ambient temperature measured by the external sensor (°C),aerosol sample conditioner tube jacket temperature (°C),OPC LED temperature (°C),internal box temperature (°C),relative humidity of the measurement (%),span deviation,mass concentration of particles derived from Lorenz-Mie calculation of OPC scattering (μg/m³),mass concentration of particles derived from Lorenz-Mie calculation of OPC scattering (μg/m³),mass concentration of particles derived from Lorenz-Mie calculation of OPC scattering (μg/m³)
DateTimeUTC,F1_M11,P_M11,Q1_M11,Q2_M11,T1_M11,T2_M11,T3_M11,T4_M11,T5_M11,U1_M11,ZSPAN_M11,X0_M11,X2_M11,X1_M11
2023-09-16 11:00:00,SystemResetWarning,0835.9,5.00,000.00,026.8,025.3,000.0,035.3,028.4,19.7,0000.0,0008.05,0004.09,0003.65
2023-09-16 11:01:00,SystemResetWarning,0835.9,4.99,000.00,026.8,025.2,000.0,035.3,028.4,19.7,0000.0,0008.16,0004.08,0003.65
2023-09-16 11:02:00,SystemResetWarning,0835.9,4.99,000.00,026.8,025.2,000.0,035.3,028.4,19.7,0000.0,0008.10,0004.06,0003.64
2023-09-16 11:03:00,SystemResetWarning,0835.9,5.00,000.00,026.8,025.2,000.0,035.3,028.4,19.7,0000.0,0008.28,0004.08,0003.64
2023-09-16 11:04:00,SystemResetWarning,0835.9,5.00,000.00,026.8,025.2,000.0,035.3,028.4,19.7,0000.0,0008.39,0004.07,0003.64
2023-09-16 11:05:00,SystemResetWarning,0836.0,5.01,000.00,026.8,025.2,000.0,035.3,028.4,19.7,0000.0,0007.94,0004.06,0003.64
2023-09-16 11:06:00,SystemResetWarning,0836.0,5.01,000.00,026.8,025.3,000.0,035.3,028.4,19.7,0000.0,0007.88,0004.06,0003.64
2023-09-16 11:07:00,SystemResetWarning,0835.9,5.00,000.00,026.8,025.3,000.0,035.3,028.4,19.7,0000.0,0008.04,0004.05,0003.64
2023-09-16 11:08:00,SystemResetWarning,0836.0,4.99,000.00,026.8,025.2,000.0,035.3,028.4,19.7,0000.0,0008.12,0004.05,0003.64
2023-09-16 11:09:00,SystemResetWarning,0836.0,4.99,000.00,026.8,025.2,000.0,035.3,028.3,19.7,0000.0,0008.17,0004.08,0003.66
2023-09-16 11:10:00,SystemResetWarning,0836.0,5.00,000.00,026.8,025.2,000.0,035.3,028.3,19.6,0000.0,0008.05,0004.07,0003.67
2023-09-16 11:11:00,SystemResetWarning,0836.1,5.00,000.00,026.8,025.2,000.0,035.3,028.3,19.7,0000.0,0007.94,0004.07,0003.68
2023-09-16 11:12:00,SystemResetWarning,0836.1,5.00,000.00,026.8,025.2,000.0,035.3,028.4,19.7,0000.0,0007.66,0004.10,0003.68
2023-09-16 11:13:00,SystemResetWarning,0836.1,5.00,000.00,026.8,025.2,000.0,035.3,028.4,19.6,0000.0,0007.55,0004.09,0003.68
2023-09-16 11:14:00,SystemResetWarning,0836.1,5.00,000.00,026.8,025.2,000.0,035.3,028.4,19.6,0000.0,0007.44,0004.07,0003.67
2023-09-16 11:15:00,SystemResetWarning,0836.1,5.01,000.00,026.8,025.2,000.0,035.3,028.3,19.6,0000.0,0007.28,0004.07,0003.68
2023-09-16 11:16:00,SystemResetWarning,0836.1,5.00,000.00,026.8,025.2,000.0,035.3,028.4,19.6,0000.0,0007.32,0004.08,0003.68
2023-09-16 11:17:00,SystemResetWarning,0836.1,5.00,000.00,026.8,025.2,000.0,035.3,028.3,19.6,0000.0,0007.24,0004.07,0003.67
2023-09-16 11:18:00,SystemResetWarning,0836.1,5.00,000.00,026.8,025.2,000.0,035.3,028.3,19.7,0000.0,0007.34,0004.06,0003.67
2023-09-16 11:19:00,SystemResetWarning,0836.1,5.00,000.00,026.8,025.2,000.0,035.3,028.3,19.7,0000.0,0007.29,0004.05,0003.67
2023-09-16 11:20:00,SystemResetWarning,0836.1,5.00,000.00,026.8,025.2,000.0,035.3,028.3,19.6,0000.0,0007.20,0004.02,0003.66
2023-09-16 11:21:00,SystemResetWarning,0836.1,5.00,000.00,026.8,025.2,000.0,035.3,028.3,19.6,0000.0,0007.17,0004.01,0003.65
2023-09-16 11:22:00,SystemResetWarning,0836.1,5.00,000.00,026.8,025.1,000.0,035.2,028.3,19.6,0000.0,0007.10,0004.00,0003.65
2023-09-16 11:23:00,SystemResetWarning,0836.1,4.99,000.00,026.8,025.1,000.0,035.2,028.3,19.6,0000.0,0007.73,0004.01,0003.65
2023-09-16 11:24:00,SystemResetWarning,0836.1,4.99,000.00,026.7,025.1,000.0,035.2,028.3,19.6,0000.0,0008.07,0004.03,0003.65
2023-09-16 11:25:00,SystemResetWarning,0836.1,5.00,000.00,026.7,025.1,000.0,035.2,028.3,19.5,0000.0,0008.08,0004.04,0003.66
2023-09-16 11:26:00,SystemResetWarning,0836.1,5.01,000.00,026.7,025.1,000.0,035.2,028.3,19.5,0000.0,0008.18,0004.08,0003.67
2023-09-16 11:27:00,SystemResetWarning,0836.1,5.01,000.00,026.7,025.1,000.0,035.2,028.3,19.5,0000.0,0008.28,0004.11,0003.69
2023-09-16 11:28:00,SystemResetWarning,0836.1,4.99,000.00,026.7,025.1,000.0,035.2,028.3,19.5,0000.0,0008.33,0004.12,0003.70
2023-09-16 11:29:00,SystemResetWarning,0836.0,4.99,000.00,026.7,025.1,000.0,035.2,028.2,19.5,0000.0,0008.19,0004.15,0003.71
2023-09-16 11:30:00,SystemResetWarning,0836.1,4.99,000.00,026.7,025.1,000.0,035.2,028.2,19.6,0000.0,0008.05,0004.15,0003.72
2023-09-16 11:31:00,SystemResetWarning,0836.1,5.01,000.00,026.7,025.1,000.0,035.2,028.2,19.6,0000.0,0008.00,0004.16,0003.72
2023-09-16 11:32:00,SystemResetWarning,0836.1,5.01,000.00,026.7,025.1,000.0,035.2,028.2,19.5,0000.0,0008.06,0004.17,0003.73
2023-09-16 11:33:00,SystemResetWarning,0836.1,4.99,000.00,026.7,025.0,000.0,035.2,028.2,19.6,0000.0,0008.10,0004.19,0003.75
2023-09-16 11:34:00,SystemResetWarning,0836.1,4.99,000.00,026.7,025.0,000.0,035.2,028.2,19.8,0000.0,0007.79,0004.20,0003.76
2023-09-16 11:35:00,SystemResetWarning,0836.1,5.00,000.00,026.7,025.0,000.0,035.2,028.2,19.7,0000.0,0007.25,0004.20,0003.77
2023-09-16 11:36:00,SystemResetWarning,0836.1,5.00,000.00,026.7,025.0,000.0,035.2,028.2,19.6,0000.0,0007.15,0004.20,0003.77
2023-09-16 11:37:00,SystemResetWarning,0836.1,5.01,000.00,026.7,025.0,000.0,035.2,028.2,19.6,0000.0,0006.99,0004.18,0003.77
2023-09-16 11:38:00,SystemResetWarning,0836.1,5.01,000.00,026.7,025.0,000.0,035.2,028.1,19.7,0000.0,0006.87,0004.14,0003.77
2023-09-16 11:39:00,SystemResetWarning,0836.1,5.00,000.00,026.6,025.0,000.0,035.2,028.1,19.7,0000.0,0006.98,0004.12,0003.78
2023-09-16 11:40:00,SystemResetWarning,0836.1,5.00,000.00,026.6,025.0,000.0,035.2,028.2,19.7,0000.0,0006.75,0004.10,0003.77
2023-09-16 11:41:00,SystemResetWarning,0836.1,5.00,000.00,026.6,025.0,000.0,035.1,028.1,19.7,0000.0,0006.50,0004.08,0003.78
2023-09-16 11:42:00,SystemResetWarning,0836.2,5.00,000.00,026.6,025.0,000.0,035.1,028.2,19.7,0000.0,0006.57,0004.10,0003.78
2023-09-16 11:43:00,SystemResetWarning,0836.2,5.00,000.00,026.6,025.0,000.0,035.1,028.2,19.8,0000.0,0006.54,0004.10,0003.78
2023-09-16 11:44:00,SystemResetWarning,0836.2,4.99,000.00,026.6,025.0,000.0,035.1,028.2,19.7,0000.0,0006.63,0004.11,0003.77
2023-09-16 11:45:00,SystemResetWarning,0836.2,5.00,000.00,026.6,025.0,000.0,035.1,028.2,19.7,0000.0,0006.51,0004.08,0003.75
2023-09-16 11:46:00,SystemResetWarning,0836.2,5.01,000.00,026.6,025.0,000.0,035.1,028.2,19.7,0000.0,0006.45,0004.08,0003.75
2023-09-16 11:47:00,SystemResetWarning,0836.2,5.00,000.00,026.6,025.0,000.0,035.1,028.2,19.8,0000.0,0007.11,0004.08,0003.74
2023-09-16 11:48:00,SystemResetWarning,0836.2,5.00,000.00,026.6,025.0,000.0,035.1,028.1,19.6,0000.0,0007.31,0004.08,0003.75
2023-09-16 11:49:00,SystemResetWarning,0836.3,5.00,000.00,026.6,025.0,000.0,035.1,028.1,19.6,0000.0,0007.34,0004.10,0003.74
2023-09-16 11:50:00,SystemResetWarning,0836.2,5.00,000.00,026.6,025.0,000.0,035.1,028.1,19.6,0000.0,0007.44,0004.12,0003.74
2023-09-16 11:51:00,SystemResetWarning,0836.2,5.00,000.00,026.6,025.0,000.0,035.1,028.1,19.6,0000.0,0007.99,0004.14,0003.74
2023-09-16 11:52:00,SystemResetWarning,0836.2,5.00,000.00,026.6,025.0,000.0,035.1,028.1,19.6,0000.0,0008.55,0004.15,0003.72
2023-09-16 11:53:00,SystemResetWarning,0836.3,5.00,000.00,026.6,025.0,000.0,035.1,028.1,19.6,0000.0,0008.59,0004.14,0003.72
2023-09-16 11:54:00,SystemResetWarning,0836.2,5.00,000.00,026.6,025.0,000.0,035.1,028.2,19.6,0000.0,0008.60,0004.11,0003.73
2023-09-16 11:55:00,SystemResetWarning,0836.3,4.99,000.00,026.6,025.0,000.0,035.1,028.2,19.6,0000.0,0008.60,0004.12,0003.73
2023-09-16 11:56:00,SystemResetWarning,0836.2,5.00,000.00,026.6,025.0,000.0,035.1,028.2,19.7,0000.0,0008.58,0004.11,0003.73
2023-09-16 11:57:00,SystemResetWarning,0836.3,4.99,000.00,026.6,025.0,000.0,035.1,028.2,19.7,0000.0,0008.62,0004.09,0003.73
2023-09-16 11:58:00,SystemResetWarning,0836.3,5.00,000.00,026.6,025.0,000.0,035.1,028.1,19.7,0000.0,0008.71,0004.11,0003.72
2023-09-16 11:59:00,SystemResetWarning,0836.3,5.00,000.00,026.6,025.0,000.0,035.0,028.2,19.7,0000.0,0008.68,0004.13,0003.71
